Location: Penton Mewsey
(51.2167°N, 1.5167°W)
Time: 18:11:35
(UTC+00:00)

Meteor 1-11 - Pass Details

Date: 30 March 2020
Orbit: 841 x 886 km, 81.2° (Epoch: 24 May)

Event Time Altitude Azimuth Distance (km) Brightness Sun altitude
Rises 20:54:04 0° 347° (NNW) 3,503 8.2 -20.6°
Reaches altitude 10° 20:56:33 10° 348° (NNW) 2,556 7.4 -20.9°
Maximum altitude 21:02:23 84° 77° (ENE) 890 4.2 -21.7°
Enters shadow 21:04:36 40° 163° (SSE) 1,273 4.7 -21.9°
